| time (UTC) | temp F | wind direction | speed knots | gust knots | rain 1hr in | rain 24hr in | rain mn in | humidity % | barometer mb |
| 20260507015025 | 45 | 90 | 4.3 | 10.4 | 0.00 | 0.00 | 0.00 | 87 | 1012.6 |
| 20260507014025 | 45 | 68 | 4.3 | 11.3 | 0.00 | 0.00 | 0.00 | 86 | 1012.6 |
| 20260507013025 | 45 | 68 | 3.5 | 7.0 | 0.00 | 0.00 | 0.00 | 86 | 1012.4 |
| 20260507012025 | 45 | 90 | 2.6 | 8.7 | 0.00 | 0.00 | 0.00 | 86 | 1012.4 |
| 20260507011025 | 45 | 90 | 4.3 | 8.7 | 0.00 | 0.00 | 0.00 | 86 | 1012.4 |
| 20260507010025 | 45 | 90 | 7.0 | 13.0 | 0.00 | 0.00 | 0.00 | 86 | 1012.4 |
| 20260507005025 | 45 | 68 | 6.1 | 12.2 | 0.00 | 0.00 | 0.00 | 86 | 1012.3 |
| 20260507004125 | 45 | 68 | 7.0 | 13.9 | 0.00 | 0.00 | 0.00 | 86 | 1012.3 |
| 20260507003045 | 45 | 68 | 7.8 | 13.9 | 0.00 | 0.00 | 0.00 | 86 | 1012.3 |
| 20260507002025 | 45 | 68 | 6.1 | 12.2 | 0.00 | 0.00 | 0.00 | 87 | 1012.2 |
| 20260507001025 | 45 | 68 | 4.3 | 8.7 | 0.00 | 0.00 | 0.00 | 87 | 1012.2 |
| 20260507000025 | 45 | 68 | 3.5 | 12.2 | 0.00 | 0.00 | 0.00 | 87 | 1012.2 |
| 20260506235025 | 45 | 68 | 6.1 | 12.2 | 0.00 | 0.00 | 0.00 | 87 | 1012.2 |
| 20260506234025 | 46 | 68 | 6.1 | 11.3 | 0.00 | 0.00 | 0.00 | 87 | 1012.1 |
| 20260506233025 | 46 | 90 | 3.5 | 7.8 | 0.00 | 0.00 | 0.00 | 88 | 1012.2 |
| 20260506232025 | 46 | 68 | 4.3 | 10.4 | 0.00 | 0.00 | 0.00 | 88 | 1012.1 |
| 20260506231045 | 46 | 68 | 6.1 | 10.4 | 0.00 | 0.00 | 0.00 | 88 | 1012.0 |
| 20260506230025 | 46 | 68 | 4.3 | 8.7 | 0.00 | 0.00 | 0.00 | 88 | 1012.0 |
| 20260506225026 | 46 | 68 | 6.1 | 12.2 | 0.00 | 0.00 | 0.00 | 88 | 1012.0 |
| 20260506224025 | 46 | 68 | 7.0 | 12.2 | 0.00 | 0.00 | 0.00 | 88 | 1011.9 |
| 20260506223025 | 46 | 68 | 7.0 | 13.9 | 0.00 | 0.00 | 0.00 | 89 | 1011.7 |
| 20260506222025 | 46 | 68 | 7.8 | 13.9 | 0.00 | 0.00 | 0.00 | 89 | 1011.6 |
| 20260506221025 | 46 | 68 | 7.0 | 13.9 | 0.00 | 0.00 | 0.00 | 89 | 1011.6 |
| 20260506220025 | 46 | 68 | 6.1 | 14.8 | 0.00 | 0.00 | 0.00 | 89 | 1011.6 |
| 20260506215025 | 46 | 68 | 3.5 | 9.6 | 0.00 | 0.00 | 0.00 | 90 | 1011.5 |
| 20260506214025 | 46 | 68 | 2.6 | 7.8 | 0.00 | 0.00 | 0.00 | 89 | 1011.4 |
| 20260506213025 | 46 | 68 | 3.5 | 7.8 | 0.00 | 0.00 | 0.00 | 89 | 1011.3 |
| 20260506212045 | 46 | 68 | 7.0 | 13.9 | 0.00 | 0.00 | 0.00 | 89 | 1011.3 |
| 20260506211025 | 46 | 68 | 7.0 | 12.2 | 0.00 | 0.00 | 0.00 | 89 | 1011.3 |
| 20260506210025 | 46 | 68 | 7.8 | 13.0 | 0.00 | 0.00 | 0.00 | 89 | 1011.2 |
| 20260506205025 | 47 | 68 | 7.0 | 12.2 | 0.00 | 0.00 | 0.00 | 89 | 1011.2 |
| 20260506204025 | 47 | 68 | 6.1 | 12.2 | 0.00 | 0.00 | 0.00 | 89 | 1011.1 |
| 20260506203025 | 47 | 68 | 6.1 | 12.2 | 0.00 | 0.00 | 0.00 | 89 | 1011.1 |
| 20260506202025 | 47 | 68 | 6.1 | 11.3 | 0.00 | 0.00 | 0.00 | 89 | 1011.1 |
| 20260506201025 | 47 | 68 | 6.1 | 11.3 | 0.00 | 0.00 | 0.00 | 89 | 1011.0 |
| 20260506200045 | 47 | 68 | 5.2 | 10.4 | 0.00 | 0.00 | 0.00 | 89 | 1011.0 |
| 20260506195024 | 47 | 68 | 5.2 | 11.3 | 0.00 | 0.00 | 0.00 | 88 | 1011.0 |
| 20260506194024 | 48 | 68 | 7.0 | 13.9 | 0.00 | 0.00 | 0.00 | 88 | 1010.8 |
| 20260506193024 | 48 | 68 | 6.1 | 13.9 | 0.00 | 0.00 | 0.00 | 88 | 1010.7 |
| 20260506192024 | 49 | 68 | 3.5 | 10.4 | 0.00 | 0.00 | 0.00 | 88 | 1010.5 |
| 20260506191025 | 49 | 68 | 5.2 | 11.3 | 0.00 | 0.00 | 0.00 | 87 | 1010.4 |
| 20260506190024 | 49 | 68 | 5.2 | 13.0 | 0.00 | 0.00 | 0.00 | 86 | 1010.3 |
| 20260506185024 | 49 | 68 | 6.1 | 13.0 | 0.00 | 0.00 | 0.00 | 86 | 1010.0 |
| 20260506184024 | 49 | 68 | 7.0 | 15.6 | 0.00 | 0.00 | 0.00 | 85 | 1009.9 |
| 20260506183044 | 50 | 90 | 5.2 | 11.3 | 0.00 | 0.00 | 0.00 | 83 | 1009.9 |
| 20260506182025 | 50 | 68 | 6.1 | 14.8 | 0.00 | 0.00 | 0.00 | 82 | 1009.8 |
| 20260506181025 | 51 | 68 | 6.1 | 10.4 | 0.00 | 0.00 | 0.00 | 81 | 1009.7 |
| 20260506180025 | 51 | 68 | 5.2 | 8.7 | 0.00 | 0.00 | 0.00 | 81 | 1009.7 |
| 20260506175024 | 51 | 90 | 6.1 | 10.4 | 0.00 | 0.00 | 0.00 | 79 | 1009.6 |
| 20260506174025 | 52 | 68 | 1.7 | 8.7 | 0.00 | 0.00 | 0.00 | 79 | 1009.5 |
| 20260506173104 | 52 | 68 | 4.3 | 10.4 | 0.00 | 0.00 | 0.00 | 80 | 1009.4 |
| 20260506172024 | 52 | 68 | 4.3 | 9.6 | 0.00 | 0.00 | 0.00 | 79 | 1009.3 |
| 20260506171024 | 53 | 68 | 2.6 | 9.6 | 0.00 | 0.00 | 0.00 | 79 | 1009.2 |
| 20260506170024 | 53 | 68 | 1.7 | 6.1 | 0.00 | 0.00 | 0.00 | 79 | 1009.2 |
| 20260506165104 | 53 | 68 | 1.7 | 6.1 | 0.00 | 0.00 | 0.00 | 78 | 1009.2 |
| 20260506164024 | 53 | 68 | 1.7 | 7.8 | 0.00 | 0.00 | 0.00 | 77 | 1009.2 |
| 20260506163024 | 53 | 68 | 4.3 | 8.7 | 0.00 | 0.00 | 0.00 | 77 | 1009.1 |
| 20260506162024 | 53 | 68 | 1.7 | 7.8 | 0.00 | 0.00 | 0.00 | 79 | 1009.0 |
| 20260506161044 | 54 | 68 | 2.6 | 7.8 | 0.00 | 0.00 | 0.00 | 78 | 1009.1 |
| 20260506160044 | 54 | 68 | 1.7 | 7.8 | 0.00 | 0.00 | 0.00 | 79 | 1009.1 |
| 20260506155104 | 54 | 68 | 2.6 | 8.7 | 0.00 | 0.00 | 0.00 | 79 | 1009.0 |
| 20260506154024 | 54 | 45 | 2.6 | 7.0 | 0.00 | 0.00 | 0.00 | 79 | 1009.1 |
| 20260506153024 | 54 | 45 | 2.6 | 7.0 | 0.00 | 0.00 | 0.00 | 78 | 1009.1 |
| 20260506152024 | 54 | 68 | 2.6 | 7.0 | 0.00 | 0.00 | 0.00 | 78 | 1009.2 |
| 20260506151044 | 54 | 45 | 2.6 | 7.0 | 0.00 | 0.00 | 0.00 | 78 | 1009.2 |
| 20260506150024 | 54 | 45 | 3.5 | 9.6 | 0.00 | 0.00 | 0.00 | 78 | 1009.1 |
| 20260506145044 | 54 | 68 | 2.6 | 10.4 | 0.00 | 0.00 | 0.00 | 78 | 1009.1 |
| 20260506144024 | 54 | 68 | 2.6 | 7.8 | 0.00 | 0.00 | 0.00 | 78 | 1009.1 |
| 20260506143024 | 54 | 68 | 4.3 | 10.4 | 0.00 | 0.00 | 0.00 | 77 | 1009.1 |
| 20260506142024 | 54 | 90 | 2.6 | 7.8 | 0.00 | 0.00 | 0.00 | 77 | 1009.2 |
| 20260506141024 | 54 | 68 | 5.2 | 12.2 | 0.00 | 0.00 | 0.00 | 76 | 1009.3 |
| 20260506140024 | 54 | 68 | 5.2 | 10.4 | 0.00 | 0.00 | 0.00 | 75 | 1009.2 |
| 20260506135024 | 54 | 68 | 5.2 | 11.3 | 0.00 | 0.00 | 0.00 | 74 | 1009.2 |
| 20260506134024 | 54 | 45 | 3.5 | 9.6 | 0.00 | 0.00 | 0.00 | 74 | 1009.2 |
| 20260506133046 | 54 | 68 | 2.6 | 9.6 | 0.00 | 0.00 | 0.00 | 74 | 1009.2 |
| 20260506132025 | 54 | 68 | 4.3 | 9.6 | 0.00 | 0.00 | 0.00 | 72 | 1009.1 |
| 20260506131025 | 55 | 68 | 4.3 | 9.6 | 0.00 | 0.00 | 0.00 | 72 | 1009.2 |
| 20260506130023 | 55 | 68 | 5.2 | 9.6 | 0.00 | 0.00 | 0.00 | 72 | 1009.1 |
| 20260506125045 | 55 | 68 | 3.5 | 8.7 | 0.00 | 0.00 | 0.00 | 72 | 1009.1 |
| 20260506124025 | 55 | 45 | 4.3 | 9.6 | 0.00 | 0.00 | 0.00 | 73 | 1009.0 |
| 20260506123025 | 55 | 68 | 5.2 | 11.3 | 0.00 | 0.00 | 0.00 | 71 | 1009.0 |
| 20260506122025 | 56 | 90 | 6.1 | 11.3 | 0.00 | 0.00 | 0.00 | 70 | 1008.9 |
| 20260506121024 | 55 | 45 | 2.6 | 8.7 | 0.00 | 0.00 | 0.00 | 73 | 1008.9 |
| 20260506120025 | 55 | 68 | 3.5 | 7.8 | 0.00 | 0.00 | 0.00 | 74 | 1008.8 |
| 20260506115025 | 55 | 68 | 7.0 | 11.3 | 0.00 | 0.00 | 0.00 | 71 | 1008.8 |
| 20260506114025 | 56 | 45 | 4.3 | 11.3 | 0.00 | 0.00 | 0.00 | 74 | 1008.8 |
| 20260506113106 | 55 | 68 | 3.5 | 8.7 | 0.00 | 0.00 | 0.00 | 77 | 1008.8 |
| 20260506112025 | 54 | 23 | 2.6 | 9.6 | 0.00 | 0.00 | 0.00 | 78 | 1008.8 |
| 20260506111105 | 54 | 68 | 2.6 | 9.6 | 0.00 | 0.00 | 0.00 | 78 | 1008.8 |
| 20260506110025 | 53 | 45 | 1.7 | 7.8 | 0.00 | 0.00 | 0.00 | 80 | 1008.8 |
| 20260506105025 | 53 | 68 | 2.6 | 8.7 | 0.00 | 0.00 | 0.00 | 79 | 1008.8 |
| 20260506104025 | 52 | 23 | 1.7 | 6.1 | 0.00 | 0.00 | 0.00 | 79 | 1008.8 |
| 20260506103025 | 52 | 45 | 2.6 | 8.7 | 0.00 | 0.00 | 0.00 | 79 | 1008.8 |
| 20260506102025 | 52 | 68 | 4.3 | 8.7 | 0.00 | 0.00 | 0.00 | 79 | 1008.7 |
| 20260506101025 | 52 | 68 | 4.3 | 9.6 | 0.00 | 0.00 | 0.00 | 79 | 1008.8 |
| 20260506100025 | 52 | 45 | 1.7 | 5.2 | 0.00 | 0.00 | 0.00 | 81 | 1008.7 |
| 20260506095025 | 52 | 45 | 1.7 | 7.8 | 0.00 | 0.02 | 0.00 | 80 | 1008.7 |
| 20260506094025 | 52 | 0 | 1.7 | 6.1 | 0.00 | 0.02 | 0.00 | 80 | 1008.6 |
| 20260506093025 | 51 | 68 | 1.7 | 7.8 | 0.00 | 0.02 | 0.00 | 79 | 1008.6 |
| 20260506092025 | 51 | 45 | 3.5 | 7.8 | 0.00 | 0.02 | 0.00 | 79 | 1008.6 |
| 20260506091025 | 51 | 68 | 3.5 | 10.4 | 0.00 | 0.02 | 0.00 | 79 | 1008.5 |
| 20260506090025 | 51 | 45 | 3.5 | 9.6 | 0.00 | 0.06 | 0.00 | 79 | 1008.5 |
| 20260506085025 | 51 | 68 | 2.6 | 8.7 | 0.00 | 0.06 | 0.00 | 79 | 1008.5 |
| 20260506084025 | 50 | 45 | 1.7 | 7.8 | 0.00 | 0.06 | 0.00 | 79 | 1008.5 |
| 20260506083025 | 50 | 45 | 3.5 | 12.2 | 0.00 | 0.06 | 0.00 | 79 | 1008.5 |
| 20260506082025 | 49 | 45 | 4.3 | 10.4 | 0.00 | 0.06 | 0.00 | 79 | 1008.4 |
| 20260506081025 | 49 | 45 | 3.5 | 8.7 | 0.00 | 0.06 | 0.00 | 79 | 1008.4 |
| 20260506073025 | 49 | 68 | 2.6 | 7.8 | 0.00 | 0.09 | 0.00 | 79 | 1008.3 |
| 20260506072025 | 48 | 68 | 4.3 | 9.6 | 0.00 | 0.09 | 0.00 | 79 | 1008.3 |
| 20260506071025 | 48 | 45 | 2.6 | 7.8 | 0.00 | 0.09 | 0.00 | 79 | 1008.3 |
| 20260506062025 | 47 | 45 | 4.3 | 9.6 | 0.00 | 0.11 | 0.00 | 79 | 1008.2 |
| 20260506061025 | 47 | 45 | 3.5 | 8.7 | 0.00 | 0.11 | 0.00 | 80 | 1008.3 |
| 20260506051025 | 46 | 45 | 4.3 | 12.2 | 0.00 | 0.17 | 0.00 | 79 | 1008.3 |
| 20260506045024 | 46 | 68 | 3.5 | 8.7 | 0.00 | 0.22 | 0.00 | 78 | 1008.4 |
| 20260506044025 | 46 | 45 | 2.6 | 10.4 | 0.00 | 0.22 | 0.00 | 77 | 1008.5 |
| 20260506043024 | 46 | 68 | 3.5 | 7.8 | 0.00 | 0.22 | 0.00 | 77 | 1008.5 |
| 20260506042024 | 46 | 68 | 3.5 | 8.7 | 0.00 | 0.22 | 0.00 | 77 | 1008.5 |
| 20260506041025 | 46 | 68 | 1.7 | 7.0 | 0.00 | 0.22 | 0.00 | 77 | 1008.5 |
| 20260506040044 | 46 | 68 | 2.6 | 7.8 | 0.00 | 0.22 | 0.00 | 77 | 1008.4 |
| 20260506035025 | 46 | 45 | 1.7 | 6.1 | 0.00 | 0.23 | 0.00 | 77 | 1008.4 |
| 20260506034025 | 46 | 45 | 4.3 | 9.6 | 0.00 | 0.23 | 0.00 | 76 | 1008.4 |
| 20260506033024 | 46 | 45 | 2.6 | 7.8 | 0.00 | 0.23 | 0.00 | 76 | 1008.4 |
| 20260506032045 | 46 | 45 | 3.5 | 7.8 | 0.00 | 0.23 | 0.00 | 76 | 1008.5 |
| 20260506031024 | 46 | 45 | 4.3 | 9.6 | 0.00 | 0.23 | 0.00 | 76 | 1008.6 |
| 20260506030024 | 46 | 45 | 3.5 | 7.8 | 0.00 | 0.23 | 0.00 | 76 | 1008.6 |
| 20260506025024 | 46 | 68 | 4.3 | 7.8 | 0.00 | 0.23 | 0.00 | 76 | 1008.6 |
| 20260506024024 | 46 | 68 | 3.5 | 7.8 | 0.00 | 0.23 | 0.00 | 77 | 1008.8 |
| 20260506023024 | 46 | 68 | 3.5 | 8.7 | 0.00 | 0.23 | 0.00 | 78 | 1008.8 |
| 20260506022025 | 46 | 68 | 1.7 | 5.2 | 0.00 | 0.23 | 0.00 | 79 | 1009.0 |
| 20260506021024 | 46 | 45 | 2.6 | 8.7 | 0.00 | 0.23 | 0.00 | 79 | 1009.1 |
| 20260506020024 | 46 | 68 | 2.6 | 5.2 | 0.00 | 0.23 | 0.00 | 80 | 1009.2 |